{"data":{"norad_id":66266,"epoch":"2026-05-25T04:01:39.118368Z","epoch_age_seconds":60849,"freshness":"FRESH","line1":"1 66266U 25247B   26145.16781387  .00013644  00000+0  47180-3 0  9995","line2":"2 66266  53.1575 196.1551 0001295  76.1985 283.9159 15.30209721 32748","mean_motion":15.30209721,"eccentricity":0.0001295,"inclination_deg":53.1575,"raan_deg":196.1551,"arg_perigee_deg":76.1985,"mean_anomaly_deg":283.9159,"bstar":0.0004718,"rev_number":3274,"period_min":94.104747881157,"perigee_km":474.29853908495,"apogee_km":476.07354975346,"semimajor_km":6853.3230444192,"source":"CELESTRAK","updated_at":"2026-05-25T13:38:21.140413Z"}}